STARLINK-30963, 58444

Orbit data source: Space-Track

STARLINK-30963, 58444 is a payload satellite owned by SpaceX/Seattle (US) in LEO that was launched on Tue, 28 Nov 2023 UTC via an FALCON 9 launch vehicle from the Air Force Eastern Test Range (AFETR). Payload-class satellites include a variety of spacecraft equipped with specific instruments for various scientific and technological missions. These include communications satellites like Starlink; space stations such as the ISS; scientific satellites like the Hubble; Earth observation satellites from companies like Planet Labs, Umbra, and HawkEye 360; GPS; miniature CubeSats for education and research; and military/defense satellites.

Loading next visibility...
Identifier
58444, 2023-183H
Orbit
LEO
Country
Flag of USUS
Related business
Manufacturer
SpaceX/Seattle
Mission
Operational Commercial Communications
Bus & Motor
STARLINK V2M, Unknown motor
Mass
730 kg wet, ~700 kg dry
Launch date (UTC)
2023-11-28 (3 years ago)
Launch vehicle
FALCON 9
Launch site
Air Force Eastern Test Range (AFETR)
Object type
Payload
Rocket body
Debris
Shape & HBR
Box + 2 Pan, 17.7 m
Radar Cross Section
33.884 m², Large (>1 m²)

Expand to show TLE details & history
Last TLE update: 2 days ago

TLE from 2 days ago
0 STARLINK-30963
1 58444U 23183H   26171.06234749 -.00000484  00000-0 -80842-5 0  9999
2 58444  42.9992 183.2328 0001247 276.9246  83.1464 15.27575401142391
Epoch: 2026-06-20T01:29Z
TLE epoch observation values (Epoch: 2026-06-20T01:29:46.823Z)
Latitude
0.00001°
Longitude
-107.49464°
Altitude
482.736 km
Speed
7.626 km/s
True Right ascension
12h 12m 55s
True Declination
0° 00' 00"
Sunlit
Object was in daylight at epoch
Visualization orbit readout
Latitude
Unknown
Longitude
Unknown
Altitude
Unknown
Speed
Unknown
Apparent Right ascension
Unknown
Apparent Declination
Unknown
Sunlit
N/A
Visualization observer readout
Local Sidereal Time
21:31:02
Azimuth
Unknown
Elevation
Unknown
Doppler factor
Unknown
Orbital elements
Apogee altitude
485.864 km
Perigee altitude
484.152 km
Semi-major axis
6,863.145 km
Eccentricity
0.00012
Inclination
42.9992°
RAAN
183.2328°
Arg. of periapsis
276.9246°
True anomaly
83.16059°
Mean anomaly
83.1464°
Eccentric anomaly
83.15349°
Mean motion
3.81732 °/min
Orbital period
94.31 mins
BSTAR
-0.0000080842
Loading maneuver chart data...
Computing Atmospheric mass density...
Loading historical data...
Loading historical data...
Loading historical data...
Loading historical data...
Loading historical data...
Loading historical data...
Loading historical data...

Documentation

Showing up to 5 results
|